Location: Berg
(47.2344°N, 9.5296°E)
Time: 17:28:18
(UTC+00:00)

ATLAS 5 CENTAUR R/B - Pass Details

Date: 24 January 2021
Orbit: 511 x 1147 km, 63.3° (Epoch: 16 February)

Event Time Altitude Azimuth Distance (km) Brightness Sun altitude
Rises 17:23:34 0° 265° (W) 2,718 6.8 -12.1°
Reaches altitude 10° 17:26:06 10° 283° (WNW) 1,892 5.1 -12.5°
Maximum altitude 17:29:21 21° 333° (NNW) 1,410 3.5 -13.1°
Drops below altitude 10° 17:33:00 10° 23° (NNE) 2,137 4.0 -13.7°
Enters shadow 17:33:36 - 27° (NNE) 2,329 4.1 -13.8°
